sat.trackr.live / text

‹ back to catalog

UNKNOWN

NORAD 81343

UNKNOWN UNKNOWN UNKNOWN

§ Identity

Operator
Country
Launch date
Launch site
Launch vehicle
Mass (kg)
RCS (m²)

External: N2YO · Heavens-Above

§ Orbital elements

Epoch: 2026-05-23T22:24:54.336672Z

Period
95.61 min
Inclination
85.8733°
Eccentricity
0.0008874
Mean motion
15.06042535 rev/d
Perigee alt
542.2 km
Apogee alt
554.5 km
Semi-major
6,926.4 km
B*
3.1133e-4
RAAN
112.5123°
Arg perigee
44.3327°
Mean anomaly
315.8617°
Rev number
47,871

§ Raw data

UNKNOWN1 81343U          26143.93396223  .00004576  00000+0  31133-3 0  99972 81343  85.8733 112.5123 0008874  44.3327 315.8617 15.06042535478719

JSON: /api/v1/satellites/81343 · /tle

For live sub-satellite position, see the globe view (requires WebGL).

§ Visibility from observer

Set your observer location to see the next 7 days of passes ≥ 10°. The values pass through the URL so the page stays shareable.

No JS? Fill the form by hand. The geolocation button needs JavaScript.